| time (UTC) | temp F | wind direction | speed MPH | gust MPH | rain 1hr in | rain 24hr in | rain mn in | humidity % | barometer mb |
| 20260903120036 | 44 | 171 | 3.0 | 6.0 | 0.00 | 0.09 | 0.00 | 95 | 1012.7 |
| 20260903114536 | 43 | 193 | 3.0 | 7.0 | 0.00 | 0.09 | 0.00 | 95 | 1012.5 |
| 20260903113039 | 44 | 198 | 4.0 | 9.0 | 0.00 | 0.09 | 0.00 | 95 | 1012.5 |
| 20260903111607 | 44 | 182 | 4.0 | 8.0 | 0.00 | 0.09 | 0.00 | 95 | 1012.4 |
| 20260903110038 | 44 | 182 | 5.0 | 9.0 | 0.00 | 0.09 | 0.00 | 95 | 1012.3 |
| 20260903104532 | 44 | 196 | 2.0 | 7.0 | 0.00 | 0.09 | 0.00 | 95 | 1012.2 |
| 20260903103037 | 44 | 225 | 2.0 | 7.0 | 0.00 | 0.09 | 0.00 | 95 | 1012.2 |
| 20260903101535 | 44 | 182 | 3.0 | 7.0 | 0.00 | 0.09 | 0.00 | 94 | 1012.2 |
| 20260903094533 | 44 | 173 | 1.0 | 4.0 | 0.00 | 0.09 | 0.00 | 94 | 1012.0 |
| 20260903093037 | 44 | 180 | 0.0 | 2.0 | 0.00 | 0.09 | 0.00 | 94 | 1012.0 |
| 20260903090036 | 47 | 201 | 0.0 | 2.0 | 0.00 | 0.09 | 0.00 | 94 | 1012.1 |
| 20260903084537 | 48 | 164 | 1.0 | 4.0 | 0.00 | 0.09 | 0.00 | 94 | 1012.0 |
| 20260903083037 | 49 | 156 | 2.0 | 4.0 | 0.00 | 0.09 | 0.00 | 94 | 1011.9 |
| 20260903081536 | 49 | 158 | 3.0 | 7.0 | 0.00 | 0.09 | 0.00 | 94 | 1011.9 |
| 20260903080039 | 49 | 169 | 3.0 | 6.0 | 0.00 | 0.09 | 0.00 | 94 | 1012.1 |
| 20260903074536 | 49 | 153 | 0.0 | 3.0 | 0.00 | 0.09 | 0.00 | 93 | 1011.9 |
| 20260903073031 | 49 | 148 | 0.0 | 2.0 | 0.01 | 0.09 | 0.00 | 93 | 1011.7 |
| 20260903071530 | 48 | 168 | 0.0 | 3.0 | 0.01 | 0.09 | 0.00 | 93 | 1011.5 |
| 20260903070030 | 48 | 218 | 0.0 | 3.0 | 0.01 | 0.09 | 0.00 | 92 | 1011.5 |
| 20260903064532 | 48 | 163 | 2.0 | 4.0 | 0.01 | 0.09 | 0.08 | 92 | 1011.4 |
| 20260903061535 | 50 | 67 | 0.0 | 0.0 | 0.00 | 0.08 | 0.08 | 92 | 1011.5 |
| 20260903060111 | 52 | 67 | 0.0 | 0.0 | 0.00 | 0.08 | 0.08 | 92 | 1011.4 |
| 20260903054536 | 53 | 67 | 0.0 | 3.0 | 0.00 | 0.08 | 0.08 | 92 | 1011.6 |
| 20260903053029 | 53 | 47 | 0.0 | 3.0 | 0.00 | 0.08 | 0.08 | 91 | 1011.7 |
| 20260903051532 | 53 | 45 | 0.0 | 0.0 | 0.00 | 0.08 | 0.08 | 91 | 1011.5 |
| 20260903050037 | 54 | 50 | 1.0 | 4.0 | 0.00 | 0.08 | 0.08 | 91 | 1011.3 |
| 20260903044532 | 54 | 53 | 0.0 | 3.0 | 0.00 | 0.08 | 0.08 | 90 | 1011.2 |
| 20260903043149 | 54 | 67 | 0.0 | 3.0 | 0.01 | 0.08 | 0.08 | 89 | 1011.3 |
| 20260903041537 | 54 | 72 | 0.0 | 2.0 | 0.02 | 0.08 | 0.08 | 88 | 1011.0 |
| 20260903040033 | 53 | 225 | 0.0 | 0.0 | 0.08 | 0.08 | 0.08 | 86 | 1010.8 |
| 20260903034532 | 53 | 237 | 0.0 | 4.0 | 0.08 | 0.08 | 0.07 | 85 | 1010.6 |
| 20260903033032 | 55 | 264 | 2.0 | 4.0 | 0.07 | 0.07 | 0.06 | 81 | 1010.4 |
| 20260903031531 | 58 | 268 | 5.0 | 15.0 | 0.06 | 0.06 | 0.00 | 80 | 1010.3 |
| 20260903030148 | 58 | 244 | 4.0 | 12.0 | 0.00 | 0.00 | 0.00 | 79 | 1009.8 |
| 20260903024537 | 58 | 200 | 3.0 | 8.0 | 0.00 | 0.00 | 0.00 | 79 | 1009.5 |
| 20260903021537 | 59 | 174 | 4.0 | 8.0 | 0.00 | 0.00 | 0.00 | 79 | 1009.3 |
| 20260903014536 | 58 | 159 | 1.0 | 5.0 | 0.00 | 0.00 | 0.00 | 78 | 1009.4 |
| 20260903013037 | 59 | 169 | 2.0 | 4.0 | 0.00 | 0.00 | 0.00 | 77 | 1009.6 |
| 20260903011536 | 60 | 172 | 4.0 | 8.0 | 0.00 | 0.00 | 0.00 | 75 | 1009.6 |
| 20260903010037 | 60 | 182 | 5.0 | 11.0 | 0.00 | 0.00 | 0.00 | 73 | 1009.7 |
| 20260903004530 | 61 | 176 | 5.0 | 12.0 | 0.00 | 0.00 | 0.00 | 72 | 1009.6 |
| 20260903003035 | 61 | 176 | 5.0 | 11.0 | 0.00 | 0.00 | 0.00 | 73 | 1009.7 |
| 20260903000031 | 61 | 185 | 7.0 | 16.0 | 0.00 | 0.00 | 0.00 | 70 | 1009.7 |
| 20260902233037 | 62 | 181 | 6.0 | 15.0 | 0.00 | 0.00 | 0.00 | 68 | 1009.7 |
| 20260902231534 | 62 | 193 | 6.0 | 14.0 | 0.00 | 0.00 | 0.00 | 69 | 1009.8 |
| 20260902230035 | 62 | 195 | 6.0 | 15.0 | 0.00 | 0.00 | 0.00 | 69 | 1009.7 |
| 20260902223036 | 62 | 200 | 3.0 | 9.0 | 0.00 | 0.00 | 0.00 | 71 | 1009.6 |
| 20260902221533 | 62 | 191 | 3.0 | 7.0 | 0.00 | 0.00 | 0.00 | 71 | 1009.7 |
| 20260902214533 | 60 | 167 | 1.0 | 5.0 | 0.00 | 0.00 | 0.00 | 73 | 1009.8 |
| 20260902211536 | 60 | 187 | 5.0 | 11.0 | 0.00 | 0.00 | 0.00 | 70 | 1010.1 |
| 20260902210036 | 60 | 186 | 5.0 | 11.0 | 0.00 | 0.00 | 0.00 | 69 | 1010.1 |
| 20260902204607 | 61 | 186 | 6.0 | 11.0 | 0.00 | 0.00 | 0.00 | 67 | 1009.9 |
| 20260902203105 | 61 | 194 | 6.0 | 15.0 | 0.00 | 0.00 | 0.00 | 67 | 1009.8 |
| 20260902201637 | 61 | 178 | 6.0 | 12.0 | 0.00 | 0.00 | 0.00 | 69 | 1009.9 |
| 20260902200035 | 61 | 192 | 4.0 | 11.0 | 0.00 | 0.00 | 0.00 | 65 | 1010.0 |
| 20260902194529 | 63 | 204 | 9.0 | 17.0 | 0.00 | 0.00 | 0.00 | 59 | 1009.8 |
| 20260902193107 | 65 | 200 | 10.0 | 21.0 | 0.00 | 0.00 | 0.00 | 56 | 1009.6 |
| 20260902191537 | 66 | 191 | 8.0 | 17.0 | 0.00 | 0.00 | 0.00 | 54 | 1009.3 |
| 20260902190038 | 67 | 185 | 3.0 | 12.0 | 0.00 | 0.00 | 0.00 | 54 | 1009.1 |
| 20260902184535 | 68 | 43 | 2.0 | 5.0 | 0.00 | 0.00 | 0.00 | 53 | 1009.1 |
| 20260902183037 | 68 | 200 | 1.0 | 4.0 | 0.00 | 0.00 | 0.00 | 56 | 1009.2 |
| 20260902181537 | 66 | 111 | 0.0 | 7.0 | 0.00 | 0.00 | 0.00 | 58 | 1009.5 |
| 20260902180036 | 65 | 56 | 1.0 | 5.0 | 0.00 | 0.00 | 0.00 | 60 | 1009.6 |
| 20260902174535 | 65 | 356 | 0.0 | 5.0 | 0.00 | 0.00 | 0.00 | 63 | 1009.8 |
| 20260902173038 | 65 | 352 | 0.0 | 4.0 | 0.00 | 0.00 | 0.00 | 64 | 1010.1 |
| 20260902171538 | 63 | 28 | 1.0 | 5.0 | 0.00 | 0.00 | 0.00 | 68 | 1010.3 |
| 20260902170035 | 61 | 20 | 0.0 | 6.0 | 0.00 | 0.00 | 0.00 | 72 | 1010.4 |
| 20260902164609 | 61 | 339 | 0.0 | 2.0 | 0.00 | 0.00 | 0.00 | 75 | 1010.5 |
| 20260902163030 | 60 | 17 | 0.0 | 1.0 | 0.00 | 0.00 | 0.00 | 76 | 1010.7 |
| 20260902161537 | 58 | 67 | 0.0 | 3.0 | 0.00 | 0.00 | 0.00 | 80 | 1010.8 |
| 20260902160036 | 58 | 72 | 0.0 | 3.0 | 0.00 | 0.00 | 0.00 | 84 | 1011.0 |
| 20260902154538 | 57 | 67 | 0.0 | 3.0 | 0.00 | 0.00 | 0.00 | 88 | 1011.2 |
| 20260902153038 | 55 | 123 | 0.0 | 2.0 | 0.00 | 0.00 | 0.00 | 91 | 1011.3 |
| 20260902151537 | 54 | 157 | 0.0 | 0.0 | 0.00 | 0.00 | 0.00 | 92 | 1011.4 |
| 20260902150035 | 51 | 157 | 0.0 | 1.0 | 0.00 | 0.00 | 0.00 | 93 | 1011.5 |
| 20260902143038 | 48 | 188 | 2.0 | 5.0 | 0.00 | 0.00 | 0.00 | 93 | 1011.6 |
| 20260902141537 | 47 | 190 | 2.0 | 5.0 | 0.00 | 0.00 | 0.00 | 93 | 1011.6 |
| 20260902140037 | 46 | 168 | 1.0 | 4.0 | 0.00 | 0.00 | 0.00 | 92 | 1011.6 |
| 20260902134537 | 46 | 160 | 2.0 | 6.0 | 0.00 | 0.00 | 0.00 | 92 | 1011.6 |
| 20260902133039 | 46 | 176 | 3.0 | 7.0 | 0.00 | 0.00 | 0.00 | 92 | 1011.7 |
| 20260902131539 | 45 | 168 | 3.0 | 4.0 | 0.00 | 0.00 | 0.00 | 92 | 1011.9 |
| 20260902130038 | 46 | 207 | 0.0 | 3.0 | 0.00 | 0.00 | 0.00 | 91 | 1011.9 |
| 20260902124539 | 46 | 166 | 2.0 | 4.0 | 0.00 | 0.00 | 0.00 | 91 | 1012.0 |